Weather History for Kalispell, MT

Change the Weather History Date:

Friday, December 28, 2012

  Actual Average Record
Temperature  
Mean Temperature 21 °F 22 °F  
Max Temperature 30 °F 29 °F 49 °F (1980)
Min Temperature 12 °F 14 °F -27 °F (1983)
Degree Days  
Heating Degree Days 44 44  
Month to date heating degree days 1005 1182  
Since 1 July heating degree days 2985 3386  
Cooling Degree Days 0 0  
Month to date cooling degree days 0 0  
Year to date cooling degree days 192 147  
Moisture  
Dew Point 20 °F    
Average Humidity 89    
Maximum Humidity 100    
Minimum Humidity 78    
Precipitation  
Precipitation 0.00 in 0.05 in 0.78 in (1915)
Month to date precipitation 1.18 1.41  
Year to date precipitation 20.32 16.84  
Snow  
Snow 0.00 in - - ()
Month to date snowfall 6.1  
Year to date snowfall 33.5  
Since 1 July snowfall 8.4  
Snow Depth 2.00 in    
Sea Level Pressure  
Sea Level Pressure 30.20 in    
Wind  
Wind Speed 0 mph (WSW)    
Max Wind Speed 3 mph    
Max Gust Speed 18 mph    
Visibility 10 miles    
Events      
T = Trace of Precipitation, MM = Missing Value Source: NWS Daily Summary

Daily Weather History Graph

Daily Weather History Graph

Search for Another Location

Airport:

Trip Planner

Search our weather history database for the weather conditions in past years. The results will help you decide how hot, cold, wet, or windy it might be!

Date:

Astronomy

Dec. 28, 2012 Rise Set
Actual Time 8:27 AM MST 4:50 PM MST
Civil Twilight 7:51 AM MST 5:26 PM MST
Nautical Twilight 7:11 AM MST 6:06 PM MST
Astronomical Twilight 6:33 AM MST 6:44 PM MST
Moon 5:35 PM MST (12/28) 8:20 AM MST (12/28)
Length of Visible Light 9h 35m
Length of Day
8h 22m
Full, 100% of the Moon is Illuminated
Dec 28
Full
Jan 4
Last Quarter
Jan 11
New
Jan 18
First Quarter
Jan 26
Full

Hourly Weather History & Observations

Time (MST) Temp. Windchill Dew Point Humidity Pressure Visibility Wind Dir Wind Speed Gust Speed Precip Events Conditions
12:55 AM 23.0 °F - 21.0 °F 92% 30.11 in 9.0 mi Calm Calm - N/A   Overcast
1:55 AM 21.9 °F - 19.9 °F 92% 30.12 in 8.0 mi Calm Calm - N/A   Overcast
2:55 AM 21.9 °F - 21.0 °F 96% 30.14 in 9.0 mi Calm Calm - N/A   Overcast
3:55 AM 21.9 °F - 19.9 °F 92% 30.15 in 10.0 mi Calm Calm - N/A   Overcast
4:55 AM 21.9 °F - 19.9 °F 92% 30.15 in 10.0 mi Calm Calm - N/A   Overcast
5:55 AM 21.0 °F - 19.0 °F 92% 30.16 in 10.0 mi Calm Calm - N/A   Overcast
6:55 AM 19.9 °F - 18.0 °F 92% 30.17 in 10.0 mi Calm Calm - N/A   Overcast
7:55 AM 19.9 °F - 19.0 °F 96% 30.19 in 10.0 mi Calm Calm - N/A   Overcast
8:55 AM 16.0 °F - 15.1 °F 96% 30.21 in 10.0 mi Calm Calm - N/A   Overcast
9:55 AM 16.0 °F 10.4 °F 15.1 °F 96% 30.23 in 10.0 mi WNW 3.5 mph - N/A   Mostly Cloudy
10:55 AM 19.9 °F - 18.0 °F 92% 30.23 in 10.0 mi Calm Calm - N/A   Overcast
11:55 AM 25.0 °F - 21.0 °F 85% 30.21 in 10.0 mi Calm Calm - N/A   Overcast
12:55 PM 27.0 °F 23.0 °F 23.0 °F 85% 30.19 in 10.0 mi SSE 3.5 mph - N/A   Clear
1:55 PM 28.9 °F - 23.0 °F 78% 30.19 in 10.0 mi Calm Calm - N/A   Overcast
2:55 PM 28.0 °F 24.2 °F 23.0 °F 81% 30.21 in 10.0 mi West 3.5 mph - N/A   Overcast
3:55 PM 28.9 °F - 24.1 °F 82% 30.21 in 10.0 mi Calm Calm - N/A   Overcast
4:55 PM 28.0 °F - 23.0 °F 81% 30.22 in 10.0 mi Calm Calm - N/A   Overcast
5:55 PM 27.0 °F - 23.0 °F 85% 30.23 in 10.0 mi Calm Calm - N/A   Overcast
7:55 PM 26.1 °F - 23.0 °F 88% 30.24 in 10.0 mi Calm Calm - N/A   Overcast
8:55 PM 26.1 °F - 23.0 °F 88% 30.25 in 10.0 mi Calm Calm - N/A   Overcast
9:55 PM 21.9 °F - 21.0 °F 96% 30.26 in 10.0 mi Calm Calm - N/A   Overcast
10:55 PM 21.0 °F - 19.9 °F 96% 30.26 in 10.0 mi Calm Calm - N/A   Mostly Cloudy
11:55 PM 19.9 °F - 18.0 °F 92% 30.25 in 10.0 mi Calm Calm - N/A   Mostly Cloudy